This demonstration page uses our WeatherBlox Daily Observations layout. Learn more.

Left ArrowRight Arrow

38.89511, -77.03637

Hourly Observations for June 21, 2022

Temp ( °F °C ) Dew Point ( °F °C ) Humidity (%) Winds ( mph kmh ) Pressure ( in mb ) Visibility ( mi km ) Precip ( " mm )
12:52 am 00:52 Mostly Cloudy 72 22.2 48 8.9 43 43 NW 7 11 30.16 1022 10 16 0.00 0.00
1:52 am 01:52 Mostly Cloudy 70 21.1 51 10.6 51 51 Calm 30.15 1021 10 16 0.00 0.00
2:52 am 02:52 Mostly Cloudy 69 20.6 51 10.6 53 53 SSW 3 6 30.14 1021 10 16 0.00 0.00
3:52 am 03:52 Partly Cloudy 67 19.4 52 11.1 59 59 SW 5 7 30.14 1021 10 16 0.00 0.00
4:52 am 04:52 Mostly Cloudy 67 19.4 52 11.1 59 59 S 5 7 30.15 1021 10 16 0.00 0.00
5:52 am 05:52 Cloudy 68 20 53 11.7 59 59 SW 6 9 30.17 1022 10 16 0.00 0.00
6:52 am 06:52 Cloudy 69 20.6 53 11.7 57 57 SW 3 6 30.19 1022 10 16 0.00 0.00
7:52 am 07:52 Mostly Cloudy 71 21.7 52 11.1 51 51 SW 3 6 30.19 1022 10 16 0.00 0.00
8:52 am 08:52 Cloudy 73 22.8 53 11.7 50 50 S 3 6 30.20 1023 10 16 0.00 0.00
9:52 am 09:52 Cloudy 75 23.9 55 12.8 50 50 S 7 11 30.20 1023 10 16 0.00 0.00
10:52 am 10:52 Cloudy 77 25 56 13.3 48 48 S 7 11 30.19 1022 10 16 0.00 0.00
11:52 am 11:52 Cloudy 78 25.6 51 10.6 39 39 SW 6 9 30.19 1022 10 16 0.00 0.00
12:52 pm 12:52 Cloudy 79 26.1 56 13.3 45 45 S 9 15 30.13 1020 10 16 0.00 0.00
1:52 pm 13:52 Mostly Cloudy 83 28.3 53 11.7 36 36 WSW 9 15 30.14 1021 10 16 0.00 0.00
2:52 pm 14:52 Mostly Cloudy 84 28.9 55 12.8 37 37 SSE 8 13 30.12 1020 10 16 0.00 0.00
3:52 pm 15:52 Mostly Cloudy 82 27.8 58 14.4 44 44 S 10 17 30.09 1019 10 16 0.00 0.00
4:52 pm 16:52 Mostly Cloudy 83 28.3 57 13.9 41 41 S 13 20 30.08 1019 10 16 0.00 0.00
5:52 pm 17:52 Mostly Cloudy 83 28.3 55 12.8 38 38 SSW 8 13 30.06 1018 10 16 0.00 0.00
6:52 pm 18:52 Mostly Cloudy 81 27.2 58 14.4 45 45 S 13 20 30.06 1018 10 16 0.00 0.00
7:52 pm 19:52 Mostly Cloudy 79 26.1 60 15.6 52 52 S 13 20 30.06 1018 10 16 0.00 0.00
8:52 pm 20:52 Mostly Cloudy 77 25 59 15 54 54 S 9 15 30.04 1017 10 16 0.00 0.00
9:52 pm 21:52 Mostly Cloudy 75 23.9 60 15.6 60 60 S 9 15 30.06 1018 10 16 0.00 0.00
10:52 pm 22:52 Mostly Cloudy 74 23.3 59 15 60 60 S 5 7 30.05 1018 10 16 0.00 0.00
11:52 pm 23:52 Mostly Clear 73 22.8 59 15 62 62 SSE 6 9 30.05 1018 10 16 0.00 0.00

Powered by AerisWeather